TimeCST,TemperatureF,Dew PointF,Humidity,Sea Level PressureIn,VisibilityMPH,Wind Direction,Wind SpeedMPH,Gust SpeedMPH,PrecipitationIn,Events,Conditions,WindDirDegrees,DateUTC
12:52 AM,28.9,23.0,78,29.90,10.0,SE,16.1,-,N/A,,Overcast,140,2014-02-17 06:52:00
1:46 AM,28.4,23.0,80,29.84,10.0,SE,10.4,-,0.00,Rain,Light Freezing Rain,130,2014-02-17 07:46:00
1:52 AM,28.9,23.0,78,29.88,10.0,SE,8.1,-,0.00,Rain,Light Freezing Rain,130,2014-02-17 07:52:00
2:30 AM,28.9,24.1,82,29.82,8.0,SE,10.4,-,0.00,,Overcast,130,2014-02-17 08:30:00
2:52 AM,28.9,24.1,82,29.82,7.0,SE,13.8,-,0.00,,Overcast,140,2014-02-17 08:52:00
3:52 AM,30.0,24.1,79,29.84,8.0,South,8.1,-,N/A,,Overcast,170,2014-02-17 09:52:00
3:56 AM,30.0,25.0,82,29.82,6.0,South,6.9,-,0.00,Rain,Light Freezing Rain,190,2014-02-17 09:56:00
4:02 AM,30.0,25.0,82,29.82,6.0,South,6.9,-,0.00,Rain,Light Freezing Rain,190,2014-02-17 10:02:00
4:22 AM,30.0,25.0,82,29.85,4.0,WNW,6.9,-,0.01,Snow,Light Snow,290,2014-02-17 10:22:00
4:29 AM,30.0,26.1,85,29.84,1.5,NW,4.6,-,0.01,Snow,Light Snow,310,2014-02-17 10:29:00
4:33 AM,30.0,26.1,85,29.84,0.8,WNW,3.5,-,0.01,Snow,Light Snow,290,2014-02-17 10:33:00
4:43 AM,28.9,27.0,92,29.84,1.0,WNW,4.6,-,0.02,Snow,Light Snow,290,2014-02-17 10:43:00
4:52 AM,28.9,27.0,92,29.87,1.2,WSW,3.5,-,0.02,Snow,Light Snow,240,2014-02-17 10:52:00
4:59 AM,28.9,27.0,92,29.84,1.5,SSW,4.6,-,0.00,Snow,Light Snow,200,2014-02-17 10:59:00
5:04 AM,28.9,27.0,92,29.84,0.8,SSW,4.6,-,0.01,Snow,Light Snow,200,2014-02-17 11:04:00
5:32 AM,28.9,27.0,92,29.81,0.5,Calm,Calm,-,0.04,Snow,Snow,0,2014-02-17 11:32:00
5:52 AM,28.9,27.0,92,29.86,0.8,WSW,3.5,-,0.06,Snow,Light Snow,250,2014-02-17 11:52:00
5:59 AM,28.9,27.0,92,29.83,1.8,Calm,Calm,-,0.00,Snow,Light Snow,0,2014-02-17 11:59:00
6:03 AM,28.9,27.0,92,29.83,2.5,North,3.5,-,0.00,Snow,Light Snow,350,2014-02-17 12:03:00
6:11 AM,28.9,27.0,92,29.83,3.0,Calm,Calm,-,0.00,Snow,Light Snow,0,2014-02-17 12:11:00
6:36 AM,28.9,27.0,92,29.85,5.0,WSW,3.5,-,0.00,,Overcast,240,2014-02-17 12:36:00
6:52 AM,28.9,27.0,92,29.88,7.0,Variable,4.6,-,0.00,,Mostly Cloudy,0,2014-02-17 12:52:00
6:58 AM,30.0,27.0,88,29.85,7.0,WSW,4.6,-,N/A,,Mostly Cloudy,250,2014-02-17 12:58:00
6:59 AM,30.0,27.0,88,29.85,7.0,WSW,4.6,-,N/A,,Partly Cloudy,250,2014-02-17 12:59:00
7:52 AM,32.0,28.0,85,29.90,7.0,NW,6.9,-,N/A,,Mostly Cloudy,310,2014-02-17 13:52:00
8:52 AM,36.0,30.0,79,29.91,7.0,West,6.9,-,N/A,,Scattered Clouds,280,2014-02-17 14:52:00
9:52 AM,39.9,32.0,73,29.92,10.0,WNW,19.6,-,N/A,,Partly Cloudy,290,2014-02-17 15:52:00
10:52 AM,43.0,32.0,65,29.94,10.0,WNW,21.9,28.8,N/A,,Clear,300,2014-02-17 16:52:00
11:52 AM,46.0,30.9,56,29.94,10.0,WNW,19.6,29.9,N/A,,Clear,300,2014-02-17 17:52:00
12:52 PM,50.0,27.0,41,29.91,10.0,WNW,20.7,29.9,N/A,,Clear,290,2014-02-17 18:52:00
1:52 PM,52.0,24.1,34,29.89,10.0,NW,25.3,33.4,N/A,,Partly Cloudy,310,2014-02-17 19:52:00
2:52 PM,53.1,19.9,27,29.90,10.0,NW,23.0,31.1,N/A,,Partly Cloudy,310,2014-02-17 20:52:00
3:52 PM,54.0,21.0,28,29.91,10.0,NW,15.0,26.5,N/A,,Clear,320,2014-02-17 21:52:00
4:52 PM,52.0,19.9,28,29.92,10.0,WNW,10.4,-,N/A,,Partly Cloudy,300,2014-02-17 22:52:00
5:52 PM,48.9,19.0,31,29.93,10.0,WNW,6.9,-,N/A,,Partly Cloudy,290,2014-02-17 23:52:00
6:52 PM,39.9,21.0,47,29.94,10.0,Calm,Calm,-,N/A,,Partly Cloudy,0,2014-02-18 00:52:00
7:52 PM,35.1,21.9,59,29.93,10.0,SE,5.8,-,N/A,,Partly Cloudy,140,2014-02-18 01:52:00
8:52 PM,35.1,23.0,61,29.91,10.0,SSE,9.2,-,N/A,,Partly Cloudy,150,2014-02-18 02:52:00
9:52 PM,37.0,23.0,57,29.89,10.0,South,9.2,-,N/A,,Mostly Cloudy,170,2014-02-18 03:52:00
10:52 PM,32.0,23.0,69,29.88,10.0,SSE,8.1,-,N/A,,Scattered Clouds,150,2014-02-18 04:52:00
11:52 PM,32.0,23.0,69,29.86,10.0,SSE,11.5,-,N/A,,Partly Cloudy,150,2014-02-18 05:52:00